DF1NIF-13 Weather Reports


Display with metric or nautical units.
time (UTC)temp
F
wind
direction
speed
MPH
gust
MPH
rain 1hr
in
rain 24hr
in
rain mn
in
humidity
%
barometer
mb
20260831072723 62 308 6.0 0.0 0.00 0.00 0.00 90 969.2
20260831072259 61 355 2.0 7.0 0.00 0.00 0.00 90 969.2
20260831071833 61 297 4.0 3.0 0.00 0.00 0.00 90 969.2
20260831071359 61 307 0.0 3.0 0.00 0.00 0.00 91 969.3
20260831070928 61 307 4.0 7.0 0.00 0.00 0.00 91 969.3
20260831070448 61 307 2.0 9.0 0.00 0.00 0.00 94 969.2
20260831070028 61 307 4.0 9.0 0.00 0.00 0.00 94 969.0
20260831065618 61 307 4.0 13.0 0.00 0.00 0.00 94 968.9
20260831065139 61 307 6.0 7.0 0.00 0.00 0.00 94 968.8
20260831064728 61 307 0.0 16.0 0.00 0.00 0.00 94 968.7
20260831064313 61 307 4.0 16.0 0.00 0.00 0.00 94 968.7
20260831063848 61 307 5.0 20.0 0.00 0.00 0.00 94 968.7
20260831063428 61 104 5.0 20.0 0.00 0.00 0.00 94 968.6
20260831063008 61 104 6.0 9.0 0.00 0.00 0.00 94 968.6
20260831062543 60 104 3.0 9.0 0.00 0.00 0.00 94 968.7
20260831062058 60 104 3.0 5.0 0.00 0.00 0.00 94 968.6
20260831061618 60 104 3.0 5.0 0.00 0.00 0.00 94 968.5
20260831061133 60 104 2.0 9.0 0.00 0.00 0.00 94 968.5
20260831060708 60 104 2.0 9.0 0.00 0.00 0.00 94 968.3
20260831060248 60 104 3.0 9.0 0.00 0.00 0.00 94 968.5
20260831055833 60 104 7.0 9.0 0.00 0.00 0.00 94 968.5
20260831055359 60 104 2.0 9.0 0.00 0.00 0.00 94 968.4
20260831054933 60 104 1.0 5.0 0.00 0.00 0.00 94 968.3
20260831054518 60 104 1.0 0.0 0.00 0.00 0.00 94 968.1
20260831054053 60 104 1.0 0.0 0.00 0.00 0.00 94 968.0
20260831053643 60 104 0.0 0.0 0.00 0.00 0.00 94 968.0
20260831053203 60 104 0.0 1.0 0.00 0.00 0.00 94 967.9
20260831052738 60 104 0.0 1.0 0.00 0.00 0.00 94 968.0
20260831052243 60 104 0.0 1.0 0.00 0.00 0.00 94 967.9
20260831051758 60 104 0.0 1.0 0.00 0.00 0.00 94 967.9
20260831051323 60 104 1.0 1.0 0.00 0.00 0.00 94 967.9
20260831050853 60 104 1.0 1.0 0.00 0.00 0.00 94 967.9
20260831050413 60 104 1.0 9.0 0.00 0.00 0.00 94 967.9
20260831045953 60 104 0.0 1.0 0.00 0.00 0.00 94 968.0
20260831045512 60 104 0.0 0.0 0.00 0.00 0.00 94 967.7
20260831045033 60 104 0.0 0.0 0.00 0.00 0.00 94 967.6
20260831044606 60 104 1.0 1.0 0.00 0.00 0.00 94 967.5
20260831044138 60 104 1.0 1.0 0.00 0.00 0.00 94 967.7
20260831043703 60 104 1.0 1.0 0.00 0.00 0.00 94 967.6
20260831043238 60 104 1.0 1.0 0.00 0.00 0.00 94 967.5
20260831042758 60 104 1.0 1.0 0.00 0.00 0.00 94 967.6
20260831042308 60 104 1.0 5.0 0.00 0.00 0.00 94 967.4
20260831041858 60 102 4.0 0.0 0.00 0.00 0.00 94 967.3
20260831041423 60 102 2.0 0.0 0.00 0.00 0.00 94 967.7
20260831041003 60 103 1.0 0.0 0.00 0.00 0.00 94 967.5
20260831040533 60 103 1.0 0.0 0.00 0.00 0.00 94 967.7
20260831040128 60 103 1.0 0.0 0.00 0.00 0.00 94 967.7
20260831035643 60 103 1.0 5.0 0.00 0.00 0.00 94 967.7
20260831035213 60 103 1.0 5.0 0.00 0.00 0.00 94 967.8
20260831034758 60 103 2.0 5.0 0.00 0.00 0.00 94 968.0
20260831034313 60 107 2.0 5.0 0.00 0.00 0.00 94 968.2
20260831033823 60 105 8.0 5.0 0.00 0.00 0.00 94 968.3
20260831033353 60 105 8.0 5.0 0.00 0.00 0.00 94 968.5
20260831032923 60 105 1.0 13.0 0.00 0.00 0.00 88 968.4
20260831032503 60 105 1.0 5.0 0.00 0.00 0.00 88 968.8
20260831032047 60 231 1.0 25.0 0.00 0.00 0.00 88 968.9
20260831031558 60 250 1.0 13.0 0.00 0.00 0.00 88 968.1
20260831031113 61 102 1.0 3.0 0.00 0.00 0.00 86 967.2
20260831030613 61 102 1.0 3.0 0.00 0.00 0.00 85 966.4
20260831030128 61 239 1.0 3.0 0.00 0.00 0.00 85 966.3
20260831025658 61 239 0.0 3.0 0.00 0.00 0.00 85 966.8
20260831025228 61 239 3.0 5.0 0.00 0.00 0.00 85 966.8
20260831024759 61 239 3.0 3.0 0.00 0.00 0.00 85 966.7
20260831024338 61 239 1.0 1.0 0.00 0.00 0.00 85 966.8
20260831023923 61 239 1.0 1.0 0.00 0.00 0.00 85 966.8
20260831023438 61 239 0.0 3.0 0.00 0.00 0.00 85 966.6
20260831022958 61 239 0.0 1.0 0.00 0.00 0.00 85 966.8
20260831022518 61 239 0.0 3.0 0.00 0.00 0.00 85 966.8
20260831022023 61 239 0.0 0.0 0.00 0.00 0.00 85 966.9
20260831021553 60 239 0.0 1.0 0.00 0.00 0.00 85 967.1
20260831021138 60 239 0.0 1.0 0.00 0.00 0.00 85 966.9
20260831020719 60 239 0.0 0.0 0.00 0.00 0.00 85 967.4
20260831020239 60 239 0.0 0.0 0.00 0.00 0.00 85 967.0
20260831015758 60 239 0.0 1.0 0.00 0.00 0.00 85 967.1
20260831015305 60 239 0.0 1.0 0.00 0.00 0.00 85 967.1
20260831014833 60 239 0.0 1.0 0.00 0.00 0.00 85 967.1
20260831014358 60 239 0.0 1.0 0.00 0.00 0.00 85 967.2
20260831013933 60 239 0.0 1.0 0.00 0.00 0.00 85 967.3
20260831013508 60 239 0.0 1.0 0.00 0.00 0.00 85 967.4
20260831013023 59 239 1.0 1.0 0.00 0.00 0.00 85 967.4
20260831012619 59 239 0.0 3.0 0.00 0.00 0.00 85 967.2
20260831012203 59 239 0.0 1.0 0.00 0.00 0.00 85 967.5
20260831011739 59 239 1.0 0.0 0.00 0.00 0.00 85 967.6
20260831011318 59 239 2.0 0.0 0.00 0.00 0.00 88 967.4
20260831010858 58 239 0.0 0.0 0.00 0.00 0.00 88 967.7
20260831010419 58 239 0.0 1.0 0.00 0.00 0.00 88 967.5
20260831005933 58 239 0.0 1.0 0.00 0.00 0.00 88 967.6
20260831005458 58 239 0.0 0.0 0.00 0.00 0.00 88 967.7
20260831005019 58 239 0.0 3.0 0.00 0.00 0.00 88 967.9
20260831004538 58 239 0.0 3.0 0.00 0.00 0.00 88 967.9
20260831004113 58 239 0.0 1.0 0.00 0.00 0.00 88 968.1
20260831003643 58 239 1.0 3.0 0.00 0.00 0.00 88 968.0
20260831003213 58 239 0.0 0.0 0.00 0.00 0.00 89 968.1
20260831002728 58 239 0.0 0.0 0.00 0.00 0.00 88 968.1
20260831002253 58 282 0.0 1.0 0.00 0.00 0.00 88 968.2
20260831001843 58 282 0.0 1.0 0.00 0.00 0.00 88 968.2
20260831001419 58 282 0.0 1.0 0.00 0.00 0.00 86 968.4
20260831000958 58 282 0.0 1.0 0.00 0.00 0.00 86 968.5
20260831000533 58 282 0.0 1.0 0.00 0.00 0.00 86 968.3
20260831000119 57 282 0.0 1.0 0.00 0.00 0.00 86 968.2
20260830235643 57 282 0.0 1.0 0.00 0.00 0.00 86 968.4
20260830235203 59 282 0.0 1.0 0.00 0.00 0.00 86 968.4
20260830234748 59 282 0.0 1.0 0.00 0.00 0.00 86 968.6
20260830234318 59 282 0.0 1.0 0.00 0.00 0.00 86 968.5
20260830233858 59 282 0.0 1.0 0.00 0.00 0.00 86 968.5
20260830233448 59 282 1.0 1.0 0.00 0.00 0.00 86 968.5
20260830233023 58 282 1.0 1.0 0.00 0.00 0.00 86 968.6
20260830232608 58 282 1.0 1.0 0.00 0.00 0.00 86 968.4
20260830232123 58 282 0.0 1.0 0.00 0.00 0.00 86 968.7
20260830231708 58 282 0.0 1.0 0.00 0.00 0.00 86 968.7
20260830231223 59 282 0.0 1.0 0.00 0.00 0.00 86 968.6
20260830230808 59 282 0.0 1.0 0.00 0.00 0.00 86 968.6
20260830230333 60 282 0.0 1.0 0.00 0.00 0.00 85 968.8
20260830225843 60 282 0.0 1.0 0.00 0.00 0.00 81 968.8
20260830225403 60 282 0.0 1.0 0.00 0.00 0.00 81 968.7
20260830224939 60 282 0.0 1.0 0.00 0.00 0.00 81 968.9
20260830224459 60 282 0.0 1.0 0.00 0.00 0.00 81 968.7
20260830224026 60 282 0.0 1.0 0.00 0.00 0.00 81 968.8
20260830223548 60 282 0.0 1.0 0.00 0.00 0.00 81 968.7
20260830223108 60 282 1.0 1.0 0.00 0.00 0.00 81 968.8
20260830222638 60 282 0.0 1.0 0.00 0.00 0.00 81 969.0
20260830222213 60 282 0.0 1.0 0.00 0.00 0.00 81 969.0
20260830221753 60 282 0.0 0.0 0.00 0.00 0.00 81 968.9
20260830221308 60 282 0.0 0.0 0.00 0.00 0.00 81 968.8
20260830220848 60 282 0.0 0.0 0.00 0.00 0.00 81 968.9
20260830220353 60 282 1.0 1.0 0.00 0.00 0.00 81 968.8
20260830215918 60 282 1.0 1.0 0.00 0.00 0.00 81 969.0
20260830215423 61 282 1.0 1.0 0.00 0.00 0.00 81 968.9
20260830215018 61 282 1.0 1.0 0.00 0.00 0.00 74 969.0
20260830214539 61 282 0.0 1.0 0.00 0.00 0.00 74 968.8
20260830214138 62 282 0.0 1.0 0.00 0.00 0.00 74 968.8
20260830213713 62 282 0.0 1.0 0.00 0.00 0.00 74 968.7
20260830213233 63 282 0.0 1.0 0.00 0.00 0.00 74 968.9
20260830212818 63 282 0.0 1.0 0.00 0.00 0.00 74 968.7
20260830212328 63 282 1.0 1.0 0.00 0.00 0.00 74 968.8
20260830211859 63 282 1.0 1.0 0.00 0.00 0.00 74 968.8
20260830211433 63 282 0.0 1.0 0.00 0.00 0.00 74 968.8
20260830211008 63 282 1.0 1.0 0.00 0.00 0.00 74 969.1
20260830210543 63 282 2.0 1.0 0.00 0.00 0.00 74 968.7
20260830210113 63 282 1.0 1.0 0.00 0.00 0.00 74 968.9
20260830205658 63 282 1.0 1.0 0.00 0.00 0.00 74 968.9
20260830205228 65 282 0.0 1.0 0.00 0.00 0.00 74 969.0
20260830204739 65 282 0.0 1.0 0.00 0.00 0.00 74 968.8
20260830204318 65 261 1.0 1.0 0.00 0.00 0.00 74 969.0
20260830203838 65 261 1.0 1.0 0.00 0.00 0.00 74 968.6
20260830203348 65 261 2.0 1.0 0.00 0.00 0.00 74 968.8
20260830202919 65 261 2.0 1.0 0.00 0.00 0.00 63 968.6
20260830202518 65 261 1.0 1.0 0.00 0.00 0.00 63 968.9
20260830202038 65 261 1.0 1.0 0.00 0.00 0.00 63 968.9
20260830201558 65 261 2.0 1.0 0.00 0.00 0.00 63 968.7
20260830201133 65 261 2.0 3.0 0.00 0.00 0.00 63 969.0
20260830200713 65 261 0.0 3.0 0.00 0.00 0.00 63 969.0
20260830200243 65 261 0.0 3.0 0.00 0.00 0.00 63 969.1
20260830195823 65 261 0.0 3.0 0.00 0.00 0.00 63 969.0
20260830195353 65 261 1.0 3.0 0.00 0.00 0.00 63 969.0
20260830194918 66 261 1.0 3.0 0.00 0.00 0.00 63 968.9
20260830194438 66 261 1.0 3.0 0.00 0.00 0.00 63 969.0
20260830194018 66 261 1.0 1.0 0.00 0.00 0.00 63 968.8
20260830193553 66 261 1.0 1.0 0.00 0.00 0.00 63 969.0
20260830193058 66 259 1.0 1.0 0.00 0.00 0.00 63 969.0
20260830192629 67 259 2.0 3.0 0.00 0.00 0.00 63 968.9
20260830192139 67 165 1.0 3.0 0.00 0.00 0.00 63 968.9
20260830191653 67 165 2.0 1.0 0.00 0.00 0.00 63 969.1
20260830191213 68 165 1.0 3.0 0.00 0.00 0.00 63 969.0
20260830190743 68 165 1.0 3.0 0.00 0.00 0.00 63 968.8
20260830190246 69 180 0.0 3.0 0.00 0.00 0.00 63 968.9
20260830185758 69 180 1.0 3.0 0.00 0.00 0.00 63 968.9
20260830185300 69 180 0.0 1.0 0.00 0.00 0.00 59 969.0
20260830184839 69 180 0.0 1.0 0.00 0.00 0.00 59 968.7
20260830184403 71 180 0.0 1.0 0.00 0.00 0.00 59 968.8
20260830183944 71 180 1.0 1.0 0.00 0.00 0.00 59 968.8
20260830183508 71 180 0.0 1.0 0.00 0.00 0.00 59 968.7
20260830183033 71 180 0.0 1.0 0.00 0.00 0.00 51 968.5
20260830182628 71 180 0.0 1.0 0.00 0.00 0.00 51 968.7
20260830182158 71 180 0.0 1.0 0.00 0.00 0.00 51 968.5
20260830181748 72 180 0.0 1.0 0.00 0.00 0.00 51 968.7
20260830181253 72 180 0.0 0.0 0.00 0.00 0.00 51 968.3
20260830180818 72 180 1.0 0.0 0.00 0.00 0.00 51 968.3
20260830180348 72 180 2.0 0.0 0.00 0.00 0.00 51 968.3
20260830175910 72 180 2.0 1.0 0.00 0.00 0.00 51 968.4
20260830175443 72 178 1.0 1.0 0.00 0.00 0.00 51 968.2
20260830175008 74 178 0.0 1.0 0.00 0.00 0.00 51 968.3
20260830174519 74 322 0.0 7.0 0.00 0.00 0.00 51 968.2
20260830174028 74 322 2.0 7.0 0.00 0.00 0.00 51 968.2
20260830173538 74 322 4.0 7.0 0.00 0.00 0.00 51 968.3
20260830173113 74 322 3.0 1.0 0.00 0.00 0.00 51 968.2
20260830172652 74 322 4.0 1.0 0.00 0.00 0.00 51 968.1
20260830172218 74 322 1.0 7.0 0.00 0.00 0.00 51 968.2
20260830171733 74 322 2.0 3.0 0.00 0.00 0.00 47 968.2
20260830171258 74 322 1.0 5.0 0.00 0.00 0.00 47 968.2
20260830170818 74 127 1.0 1.0 0.00 0.00 0.00 47 968.2
20260830170358 75 127 1.0 7.0 0.00 0.00 0.00 47 968.0
20260830165913 75 311 0.0 7.0 0.00 0.00 0.00 47 968.2
20260830165439 75 286 3.0 3.0 0.00 0.00 0.00 46 968.2
20260830165013 75 181 1.0 5.0 0.00 0.00 0.00 45 968.0
20260830164528 75 181 4.0 5.0 0.00 0.00 0.00 45 967.9
20260830164048 75 231 4.0 13.0 0.00 0.00 0.00 45 968.1
20260830163628 75 266 1.0 3.0 0.00 0.00 0.00 44 968.0
20260830163200 75 329 4.0 5.0 0.00 0.00 0.00 44 968.1
20260830162728 75 329 4.0 5.0 0.00 0.00 0.00 45 968.1
20260830162308 75 329 1.0 5.0 0.00 0.00 0.00 45 968.2
20260830161848 75 329 2.0 5.0 0.00 0.00 0.00 41 968.1
20260830161418 75 329 1.0 5.0 0.00 0.00 0.00 41 968.1
20260830160933 75 329 2.0 3.0 0.00 0.00 0.00 41 968.1
20260830160503 77 329 3.0 3.0 0.00 0.00 0.00 41 968.1
20260830160028 77 329 3.0 13.0 0.00 0.00 0.00 41 967.9
20260830155549 77 329 8.0 13.0 0.00 0.00 0.00 41 968.2
20260830155059 77 329 2.0 13.0 0.00 0.00 0.00 41 968.2
20260830154638 77 298 5.0 14.0 0.00 0.00 0.00 41 968.5
20260830154203 77 114 9.0 20.0 0.00 0.00 0.00 41 967.9
20260830153728 76 101 9.0 11.0 0.00 0.00 0.00 41 968.2
20260830153313 76 168 4.0 11.0 0.00 0.00 0.00 41 968.2
20260830152839 76 238 5.0 13.0 0.00 0.00 0.00 41 968.3
20260830152403 76 277 6.0 14.0 0.00 0.00 0.00 41 968.3
20260830151938 76 277 7.0 16.0 0.00 0.00 0.00 41 968.3
20260830151513 76 227 7.0 14.0 0.00 0.00 0.00 41 968.3
20260830151028 75 331 4.0 13.0 0.00 0.00 0.00 41 968.4
20260830150553 75 331 19.0 14.0 0.00 0.00 0.00 41 968.3
20260830150128 76 357 4.0 14.0 0.00 0.00 0.00 41 968.0
20260830145648 76 357 4.0 14.0 0.00 0.00 0.00 41 968.3
20260830145208 76 357 4.0 20.0 0.00 0.00 0.00 41 968.4
20260830144758 76 42 8.0 16.0 0.00 0.00 0.00 41 968.2
20260830144333 76 42 4.0 9.0 0.00 0.00 0.00 39 968.2
20260830143848 77 246 5.0 18.0 0.00 0.00 0.00 39 968.4
20260830143413 77 203 13.0 11.0 0.00 0.00 0.00 41 968.3
20260830143003 77 203 1.0 11.0 0.00 0.00 0.00 41 968.5
20260830142558 77 71 13.0 14.0 0.00 0.00 0.00 41 968.4
20260830142123 77 99 7.0 22.0 0.00 0.00 0.00 41 968.4
20260830141643 77 101 7.0 16.0 0.00 0.00 0.00 41 968.3
20260830141213 77 101 4.0 18.0 0.00 0.00 0.00 41 968.8
20260830140743 77 101 9.0 18.0 0.00 0.00 0.00 41 968.3
20260830140328 77 101 11.0 20.0 0.00 0.00 0.00 41 968.5
20260830135838 77 330 8.0 20.0 0.00 0.00 0.00 44 968.4
20260830135418 76 287 6.0 20.0 0.00 0.00 0.00 44 968.3
20260830134928 78 287 11.0 16.0 0.00 0.00 0.00 44 968.3
20260830134439 78 1 3.0 14.0 0.00 0.00 0.00 44 968.3
20260830134013 77 333 3.0 23.0 0.00 0.00 0.00 44 968.6
20260830133538 77 154 3.0 16.0 0.00 0.00 0.00 44 968.5
20260830133049 77 190 10.0 16.0 0.00 0.00 0.00 44 968.5
20260830132619 77 117 7.0 13.0 0.00 0.00 0.00 44 968.6
20260830132148 77 117 7.0 11.0 0.00 0.00 0.00 44 968.5
20260830131713 76 233 9.0 13.0 0.00 0.00 0.00 44 968.6
20260830131223 76 233 9.0 14.0 0.00 0.00 0.00 44 968.6
20260830130745 75 336 6.0 18.0 0.00 0.00 0.00 44 968.5
20260830130318 75 109 10.0 25.0 0.00 0.00 0.00 44 968.5
20260830125838 74 228 10.0 11.0 0.00 0.00 0.00 44 968.8
20260830125359 74 303 7.0 20.0 0.00 0.00 0.00 44 968.8
20260830124953 76 288 7.0 5.0 0.00 0.00 0.00 44 968.4
20260830124533 77 288 2.0 11.0 0.00 0.00 0.00 41 968.8
20260830124103 75 288 4.0 11.0 0.00 0.00 0.00 41 968.6
20260830123638 75 198 11.0 16.0 0.00 0.00 0.00 41 968.9
20260830123153 76 198 7.0 22.0 0.00 0.00 0.00 41 968.8
20260830122728 76 198 8.0 23.0 0.00 0.00 0.00 41 968.8
20260830122252 76 304 8.0 20.0 0.00 0.00 0.00 45 968.5
20260830121819 76 143 8.0 14.0 0.00 0.00 0.00 45 968.8
20260830121353 76 338 7.0 14.0 0.00 0.00 0.00 45 968.6
20260830120858 76 338 7.0 11.0 0.00 0.00 0.00 45 968.7
20260830120413 76 314 2.0 16.0 0.00 0.00 0.00 45 968.8
20260830115938 76 314 11.0 22.0 0.00 0.00 0.00 45 968.8
20260830115458 75 122 11.0 22.0 0.00 0.00 0.00 46 968.6
20260830115024 75 122 6.0 22.0 0.00 0.00 0.00 46 968.9
20260830114606 75 179 9.0 20.0 0.00 0.00 0.00 46 969.0
20260830114153 75 337 2.0 18.0 0.00 0.00 0.00 100 968.8
20260830113659 75 0 2.0 16.0 0.00 0.00 0.00 100 968.8
20260830113233 75 0 2.0 11.0 0.00 0.00 0.00 100 968.8
20260830112738 74 129 5.0 20.0 0.00 0.00 0.00 48 968.8
20260830112253 74 129 5.0 20.0 0.00 0.00 0.00 48 969.1
20260830111819 73 97 6.0 20.0 0.00 0.00 0.00 48 968.8
20260830111353 73 322 4.0 9.0 0.00 0.00 0.00 48 969.0
20260830110938 73 299 16.0 9.0 0.00 0.00 0.00 47 968.9
20260830110453 73 299 6.0 9.0 0.00 0.00 0.00 47 968.8
20260830110033 73 299 3.0 18.0 0.00 0.00 0.00 47 968.9
20260830105548 73 299 5.0 20.0 0.00 0.00 0.00 47 968.7
20260830105133 73 299 14.0 20.0 0.00 0.00 0.00 47 968.6
20260830104648 73 128 7.0 23.0 0.00 0.00 0.00 47 969.3
20260830104208 74 155 7.0 23.0 0.00 0.00 0.00 50 969.0
20260830103738 73 291 7.0 25.0 0.00 0.00 0.00 50 968.9
20260830103333 73 225 7.0 16.0 0.00 0.00 0.00 50 969.1
20260830102858 72 57 11.0 25.0 0.00 0.00 0.00 50 969.2
20260830102413 73 57 4.0 38.0 0.00 0.00 0.00 54 968.9
20260830101958 72 57 4.0 14.0 0.00 0.00 0.00 54 969.1
20260830101543 72 57 13.0 18.0 0.00 0.00 0.00 54 969.0
20260830101103 72 139 3.0 11.0 0.00 0.00 0.00 53 969.0
20260830100651 72 16 3.0 18.0 0.00 0.00 0.00 54 969.1
20260830100218 73 268 3.0 20.0 0.00 0.00 0.00 52 969.4
20260830095813 73 164 3.0 9.0 0.00 0.00 0.00 52 969.1
20260830095353 71 84 7.0 20.0 0.00 0.00 0.00 52 969.0
20260830094938 71 84 7.0 20.0 0.00 0.00 0.00 52 969.3
20260830094518 71 342 7.0 9.0 0.00 0.00 0.00 55 969.1
20260830094053 71 342 7.0 13.0 0.00 0.00 0.00 55 969.4
20260830093618 70 342 6.0 16.0 0.00 0.00 0.00 58 969.4
20260830093143 70 183 7.0 11.0 0.00 0.00 0.00 56 969.3
20260830092708 71 183 7.0 23.0 0.00 0.00 0.00 56 969.1
20260830092253 71 88 7.0 16.0 0.00 0.00 0.00 56 969.4
20260830091819 70 88 5.0 22.0 0.00 0.00 0.00 59 969.4
20260830091358 70 208 8.0 16.0 0.00 0.00 0.00 58 969.1
20260830090908 69 208 6.0 11.0 0.00 0.00 0.00 58 969.3
20260830090438 69 340 10.0 16.0 0.00 0.00 0.00 58 969.3
20260830085959 70 340 5.0 14.0 0.00 0.00 0.00 57 969.2
20260830085518 71 100 11.0 16.0 0.00 0.00 0.00 57 969.1
20260830085058 69 100 13.0 9.0 0.00 0.00 0.00 62 969.4
20260830084623 69 234 4.0 9.0 0.00 0.00 0.00 62 969.3
20260830084119 70 234 5.0 20.0 0.00 0.00 0.00 62 969.2
20260830083643 68 312 11.0 18.0 0.00 0.00 0.00 62 969.0
20260830083228 69 280 11.0 14.0 0.00 0.00 0.00 62 969.2
20260830082818 69 280 11.0 14.0 0.00 0.00 0.00 62 968.9
20260830082348 69 280 4.0 14.0 0.00 0.00 0.00 62 969.2
20260830081859 69 128 11.0 20.0 0.00 0.00 0.00 62 969.3
20260830081428 69 128 8.0 11.0 0.00 0.00 0.00 61 969.2
20260830080938 68 179 8.0 11.0 0.00 0.00 0.00 61 969.2
20260830080459 68 277 2.0 0.0 0.00 0.00 0.00 61 969.0
20260830080013 68 117 8.0 16.0 0.00 0.00 0.00 63 969.0
20260830075548 68 318 14.0 25.0 0.00 0.00 0.00 63 969.3
20260830075143 68 318 4.0 23.0 0.00 0.00 0.00 63 969.1
20260830074728 68 318 4.0 25.0 0.00 0.00 0.00 63 969.0
20260830074253 68 318 4.0 25.0 0.00 0.00 0.00 63 969.3
20260830073813 69 346 4.0 18.0 0.00 0.00 0.00 63 969.0
20260830073358 68 346 4.0 16.0 0.00 0.00 0.00 63 969.1
20260830072913 68 346 9.0 18.0 0.00 0.00 0.00 63 969.1